GW4477 Weather Reports


time (UTC)temp
C
wind
direction
speed
KPH
gust
KPH
rain 1hr
cm
rain 24hr
cm
rain mn
cm
humidity
%
barometer
mb
20260505093022 10 105 11.3 24.1 0.00 0.00 0.00 56 1009.5
20260505091521 10 21 8.0 22.5 0.00 0.00 0.00 56 1009.6
20260505090005 10 9 9.7 20.9 0.00 0.00 0.00 55 1009.6
20260505084508 10 42 9.7 17.7 0.00 0.00 0.00 55 1009.5
20260505083018 10 53 11.3 19.3 0.00 0.00 0.00 53 1009.0
20260505081522 10 17 9.7 25.7 0.00 0.00 0.00 53 1008.7
20260505080024 11 348 11.3 27.4 0.00 0.00 0.00 52 1008.1
20260505074509 11 24 12.9 25.7 0.00 0.00 0.00 50 1007.6
20260505073031 11 31 14.5 27.4 0.00 0.00 0.00 49 1007.3
20260505071518 12 67 9.7 29.0 0.00 0.00 0.00 49 1006.8
20260505070022 12 41 11.3 22.5 0.00 0.00 0.00 49 1006.8
20260505064524 13 341 9.7 24.1 0.00 0.00 0.00 50 1006.7
20260505063028 13 11 11.3 24.1 0.00 0.00 0.00 50 1006.4
20260505061523 13 17 12.9 20.9 0.00 0.00 0.00 50 1006.4
20260505060023 14 91 9.7 25.7 0.00 0.00 0.00 51 1006.3
20260505054506 14 57 8.0 30.6 0.00 0.00 0.00 52 1006.2
20260505053014 15 74 8.0 19.3 0.00 0.00 0.00 54 1005.9
20260505051533 15 10 8.0 20.9 0.00 0.00 0.00 56 1006.0
20260505041511 17 9 9.7 22.5 0.00 0.00 0.00 48 1004.9
20260505040016 18 5 9.7 27.4 0.00 0.00 0.00 44 1004.5
20260505034519 19 344 11.3 17.7 0.00 0.00 0.00 39 1004.5
20260505033008 18 32 6.4 12.9 0.00 0.00 0.00 40 1004.3
20260505031510 19 130 6.4 14.5 0.00 0.00 0.00 39 1003.4
20260505030016 20 136 8.0 14.5 0.00 0.00 0.00 36 1003.1
20260505024518 20 140 8.0 12.9 0.00 0.00 0.00 34 1002.9
20260505023011 20 94 3.2 9.7 0.00 0.00 0.00 34 1002.5
20260505021510 21 144 6.4 11.3 0.00 0.00 0.00 32 1002.3
20260505020015 21 121 3.2 6.4 0.00 0.00 0.00 30 1002.3
20260505014527 22 132 1.6 9.7 0.00 0.00 0.00 29 1002.4
20260505013028 23 111 1.6 6.4 0.00 0.00 0.00 28 1002.2
20260505011509 23 94 1.6 9.7 0.00 0.00 0.00 26 1002.2
20260505010019 25 118 8.0 12.9 0.00 0.00 0.00 25 1002.2
20260505004516 25 81 1.6 6.4 0.00 0.00 0.00 24 1002.2
20260505003021 26 35 1.6 8.0 0.00 0.00 0.00 23 1002.3
20260505001524 26 87 3.2 9.7 0.00 0.00 0.00 22 1002.2
20260505000008 26 5 3.2 9.7 0.00 0.00 0.00 21 1002.5
20260504234514 26 81 1.6 8.0 0.00 0.00 0.00 21 1002.4
20260504233003 26 46 3.2 11.3 0.00 0.00 0.00 21 1002.4
20260504231505 27 121 4.8 14.5 0.00 0.00 0.00 20 1002.5
20260504230005 27 213 4.8 14.5 0.00 0.00 0.00 20 1002.7
20260504224506 27 26 6.4 20.9 0.00 0.00 0.00 20 1002.8
20260504223003 27 101 1.6 12.9 0.00 0.00 0.00 20 1003.0
20260504221509 27 352 6.4 14.5 0.00 0.00 0.00 20 1002.9
20260504220008 28 128 12.9 20.9 0.00 0.00 0.00 20 1002.9
20260504214509 27 88 4.8 12.9 0.00 0.00 0.00 21 1003.1
20260504213008 27 128 6.4 17.7 0.00 0.00 0.00 22 1003.0
20260504211503 27 100 12.9 22.5 0.00 0.00 0.00 22 1003.0
20260504210006 28 139 11.3 17.7 0.00 0.00 0.00 21 1003.2
20260504204511 28 166 3.2 9.7 0.00 0.00 0.00 17 1003.5
20260504203012 28 197 3.2 9.7 0.00 0.00 0.00 16 1003.5
20260504201512 28 234 3.2 9.7 0.00 0.00 0.00 17 1003.7
20260504200003 30 188 4.8 9.7 0.00 0.00 0.00 15 1003.8
20260504194510 29 113 6.4 14.5 0.00 0.00 0.00 14 1004.0
20260504193015 29 180 4.8 11.3 0.00 0.00 0.00 16 1004.2
20260504191527 29 121 3.2 9.7 0.00 0.00 0.00 17 1004.4
20260504190016 29 223 4.8 11.3 0.00 0.00 0.00 18 1004.6
20260504184508 30 349 0.0 3.2 0.00 0.00 0.00 18 1004.8
20260504183014 30 350 1.6 4.8 0.00 0.00 0.00 19 1005.1
20260504181518 30 256 1.6 4.8 0.00 0.00 0.00 19 1005.3
20260504180020 29 304 1.6 8.0 0.00 0.00 0.00 19 1005.6
20260504174519 28 338 0.0 14.5 0.00 0.00 0.00 23 1005.9
20260504173010 29 289 0.0 6.4 0.00 0.00 0.00 25 1006.0
20260504171515 28 256 1.6 8.0 0.00 0.00 0.00 26 1006.3